Cosmos 921 Rocket - Orbit

View from above orbital plane
View from above orbital plane
View from above satellite
View from above satellite

Ground track
Ground track

The orbit data is extracted from the following two-line orbital elements,

1 10096U 77055B   13139.79503576  .00000704  00000-0  78889-4 0  1075
2 10096 075.8344 123.0818 0043247 036.5704 029.2315 14.87292413940722
Epoch (UTC): 19 May 2013 19:04:51
Eccentricity: 0.0043247
inclination: 75.8344°
perigee height: 576 km
apogee height: 636 km
right ascension of ascending node: 123.0818°
argument of perigee: 36.5704°
revolutions per day: 14.87292413
mean anomaly at epoch: 29.2315°
orbit number at epoch: 94072

The dashed part of the orbit path shows where the satellite is in the earth's shadow,  

Developed and maintained by Chris Peat, Heavens-Above GmbH. Please read the updated FAQ before sending e-mail. Imprint. DLR